SL-14 DEB

Satellite information

Favourite Embed

Satellite Type and Status

DEBRISIN ORBIT

Key statistics

Satellite SL-14 DEB at a glance.

Uptime

13998

Days in orbit

Revolutions

≈ 13.9

Per day

Orbit

LEO

Low Earth Orbit

Inclination

82.5

Latest

Satellite identification and parameters

Extended collection of information and parameters for SL-14 DEB.

Object identification

Identified? True

Debris? True

Object name: SL-14 DEB

International designator: 1987-068CP

Object number (NORAD): 35520

Object ID (CCSDS): 35520

Country: COMMONWEALTH OF INDEPENDENT STATES (CIS)

Current information (Y/N): Y

RCS size: SMALL

Orbital parameters

Period: 103.82 minutes

Inclination: 82.5466 deg

SMA: 7317.224 km

Apoapsis: 946.003 km

Periapsis: 932.175 km

RAAN: 68.9584 deg

Eccentricy: 0.00094492

Argument of periapsis: 219.0836 deg

Mean anomaly: 263.4313 deg

Mean motion: 13.8702166 rev/day

Mean motion (dot): 0.00000245 rev/day2

B* drag term: 0.00019659182 1/REarth

Two-line elements (TLE)

Creation date: Nov. 30, 2025, 5:58 p.m.

Reference frame: TEME

Reference center: EARTH

Epoch: Nov. 30, 2025, 12:21 a.m. UTC

TLE line 0: 0 SL-14 DEB

TLE line 1: 1 35520U 87068CP 25334.01475988 .00000245 00000-0 19659-3 0 9997

TLE line 2: 2 35520 82.5466 68.9584 0009449 219.0836 263.4313 13.87021660618026

Live tracking on map

Real-time ground track for satellite SL-14 DEB.

In-orbit conjunctions

A list of the most updated potential collisions computed for object SL-14 DEB.

Target Orbit TCA Probability of collision Miss distance Type
FENGYUN 1C DEB SSO 2024-11-10 04:47:43 0.0001515919 491.0 (m) DEBRIS

Associated space launch

Second generation soviet meteorological satellite

SL-14 DEB was lifted into orbit during the mission ‘Tsiklon-3 | Meteor-2 16’, on board a Tsiklon-3 space rocket.

The launch took place on Aug. 18, 1987, 2:27 a.m. from 32/1.

For more information about the launch, click the button.

Launch to space Tsiklon-3 | Meteor-2 16
Tsiklon-3 | Meteor-2 16

Agency: N/A

Status: Launch Successful

Launch date: Aug. 18, 1987, 2:27 a.m. UTC

Rocket: Tsiklon-3

Launch pad: 32/1

Location: Plesetsk Cosmodrome, Russian Federation

...

Latest news about this satellite

There are no fresh news available about this satellite. Check back as we update our databases every day.


Newsletter sign-up

Weekly statistics, charts and insights to help you stay on top of the space industry.